TimeCDT,TemperatureF,Dew PointF,Humidity,Sea Level PressureIn,VisibilityMPH,Wind Direction,Wind SpeedMPH,Gust SpeedMPH,PrecipitationIn,Events,Conditions,WindDirDegrees,DateUTC
12:54 AM,57.9,54.0,87,30.18,10.0,NE,3.5,-,N/A,,Clear,40,2013-08-17 05:54:00
1:54 AM,57.0,52.0,83,30.17,10.0,Calm,Calm,-,N/A,,Clear,0,2013-08-17 06:54:00
2:54 AM,55.9,53.1,90,30.17,9.0,Calm,Calm,-,N/A,,Clear,0,2013-08-17 07:54:00
3:54 AM,57.0,52.0,83,30.18,10.0,Calm,Calm,-,N/A,,Clear,0,2013-08-17 08:54:00
4:54 AM,55.9,52.0,87,30.18,9.0,NNE,3.5,-,N/A,,Clear,30,2013-08-17 09:54:00
5:54 AM,57.9,54.0,87,30.19,8.0,NNE,4.6,-,N/A,,Clear,30,2013-08-17 10:54:00
6:54 AM,59.0,54.0,83,30.20,8.0,NNE,4.6,-,N/A,,Clear,20,2013-08-17 11:54:00
7:54 AM,63.0,57.0,81,30.22,10.0,NE,5.8,-,N/A,,Clear,40,2013-08-17 12:54:00
8:54 AM,66.9,57.0,70,30.22,10.0,ENE,4.6,-,N/A,,Clear,60,2013-08-17 13:54:00
9:54 AM,71.1,55.9,59,30.22,10.0,NE,8.1,-,N/A,,Clear,50,2013-08-17 14:54:00
10:54 AM,72.0,55.9,57,30.22,10.0,East,8.1,-,N/A,,Clear,90,2013-08-17 15:54:00
11:54 AM,73.0,55.9,55,30.21,10.0,East,6.9,-,N/A,,Clear,80,2013-08-17 16:54:00
12:54 PM,73.9,55.9,53,30.19,10.0,East,8.1,-,N/A,,Clear,100,2013-08-17 17:54:00
1:54 PM,77.0,53.1,43,30.18,10.0,Calm,Calm,-,N/A,,Clear,0,2013-08-17 18:54:00
2:54 PM,78.1,54.0,43,30.16,10.0,ENE,4.6,-,N/A,,Partly Cloudy,70,2013-08-17 19:54:00
3:54 PM,80.1,55.9,43,30.15,10.0,Variable,3.5,-,N/A,,Clear,0,2013-08-17 20:54:00
4:54 PM,79.0,55.0,44,30.15,10.0,ENE,5.8,-,N/A,,Clear,60,2013-08-17 21:54:00
5:54 PM,78.1,55.9,46,30.15,10.0,North,5.8,-,N/A,,Clear,360,2013-08-17 22:54:00
6:54 PM,72.0,57.9,61,30.14,10.0,North,5.8,-,N/A,,Clear,360,2013-08-17 23:54:00
7:54 PM,68.0,57.0,68,30.15,10.0,North,5.8,-,N/A,,Clear,10,2013-08-18 00:54:00
8:54 PM,63.0,57.9,84,30.15,10.0,NNE,4.6,-,N/A,,Clear,20,2013-08-18 01:54:00
9:54 PM,63.0,57.0,81,30.15,10.0,North,3.5,-,N/A,,Clear,350,2013-08-18 02:54:00
10:54 PM,61.0,57.0,87,30.15,10.0,North,3.5,-,N/A,,Clear,10,2013-08-18 03:54:00
11:54 PM,61.0,55.9,83,30.15,10.0,NE,3.5,-,N/A,,Clear,40,2013-08-18 04:54:00